Year,Month,Day,Hour,Minute,Value (Times are PST for temperature in C)
2019,04,27,00,01,8.80
2019,04,27,00,02,8.80
2019,04,27,00,03,8.80
2019,04,27,00,04,8.80
2019,04,27,00,05,8.80
2019,04,27,00,06,8.80
2019,04,27,00,07,8.80
2019,04,27,00,08,8.70
2019,04,27,00,09,8.70
2019,04,27,00,10,8.70
2019,04,27,00,11,8.70
2019,04,27,00,12,8.70
2019,04,27,00,13,8.70
2019,04,27,00,14,8.70
2019,04,27,00,15,8.60
2019,04,27,00,16,8.60
2019,04,27,00,17,8.60
2019,04,27,00,18,8.60
2019,04,27,00,19,8.60
2019,04,27,00,20,8.60
2019,04,27,00,21,8.60
2019,04,27,00,22,8.60
2019,04,27,00,23,8.60
2019,04,27,00,24,8.60
2019,04,27,00,25,8.60
2019,04,27,00,26,8.60
2019,04,27,00,27,8.60
2019,04,27,00,28,8.60
2019,04,27,00,29,8.60
2019,04,27,00,30,8.60
2019,04,27,00,31,8.60
2019,04,27,00,32,8.60
2019,04,27,00,33,8.60
2019,04,27,00,34,8.60
2019,04,27,00,35,8.60
2019,04,27,00,36,8.60
2019,04,27,00,37,8.60
2019,04,27,00,38,8.60
2019,04,27,00,39,8.50
2019,04,27,00,40,8.50
2019,04,27,00,41,8.50
2019,04,27,00,42,8.40
2019,04,27,00,43,8.40
2019,04,27,00,44,8.40
2019,04,27,00,45,8.40
2019,04,27,00,46,8.40
2019,04,27,00,47,8.40
2019,04,27,00,48,8.30
2019,04,27,00,49,8.30
2019,04,27,00,50,8.30
2019,04,27,00,51,8.30
2019,04,27,00,52,8.30
2019,04,27,00,53,8.30
2019,04,27,00,54,8.20
2019,04,27,00,55,8.20
2019,04,27,00,56,8.20
2019,04,27,00,57,8.20
2019,04,27,00,58,8.20
2019,04,27,00,59,8.10
2019,04,27,01,00,8.10
2019,04,27,01,01,8.10
2019,04,27,01,02,8.10
2019,04,27,01,03,8.10
2019,04,27,01,04,8.10
2019,04,27,01,05,8.10
2019,04,27,01,06,8.10
2019,04,27,01,07,8.10
2019,04,27,01,08,8.10
2019,04,27,01,09,8.10
2019,04,27,01,10,8.00
2019,04,27,01,11,8.00
2019,04,27,01,12,8.00
2019,04,27,01,13,7.90
2019,04,27,01,14,7.90
2019,04,27,01,15,7.90
2019,04,27,01,16,7.90
2019,04,27,01,17,7.90
2019,04,27,01,18,7.90
2019,04,27,01,19,7.90
2019,04,27,01,20,7.90
2019,04,27,01,21,7.90
2019,04,27,01,22,7.90
2019,04,27,01,23,7.90
2019,04,27,01,24,7.90
2019,04,27,01,25,7.90
2019,04,27,01,26,7.90
2019,04,27,01,27,7.90
2019,04,27,01,28,7.90
2019,04,27,01,29,7.90
2019,04,27,01,30,7.90
2019,04,27,01,31,7.90
2019,04,27,01,32,8.00
2019,04,27,01,33,7.90
2019,04,27,01,34,7.90
2019,04,27,01,35,7.90
2019,04,27,01,36,7.90
2019,04,27,01,37,7.90
2019,04,27,01,38,7.90
2019,04,27,01,39,7.90
2019,04,27,01,40,7.90
2019,04,27,01,41,7.90
2019,04,27,01,42,7.90
2019,04,27,01,43,7.90
2019,04,27,01,44,7.90
2019,04,27,01,45,7.90
2019,04,27,01,46,7.90
2019,04,27,01,47,7.90
2019,04,27,01,48,7.90
2019,04,27,01,49,7.90
2019,04,27,01,50,7.90
2019,04,27,01,51,7.90
2019,04,27,01,52,7.90
2019,04,27,01,53,7.90
2019,04,27,01,54,7.90
2019,04,27,01,55,7.90
2019,04,27,01,56,7.90
2019,04,27,01,57,7.80
2019,04,27,01,58,7.80
2019,04,27,01,59,7.80
2019,04,27,02,00,7.80
2019,04,27,02,01,7.80
2019,04,27,02,02,7.80
2019,04,27,02,03,7.80
2019,04,27,02,04,7.80
2019,04,27,02,05,7.80
2019,04,27,02,06,7.80
2019,04,27,02,07,7.70
2019,04,27,02,08,7.70
2019,04,27,02,09,7.70
2019,04,27,02,10,7.70
2019,04,27,02,11,7.70
2019,04,27,02,12,7.70
2019,04,27,02,13,7.70
2019,04,27,02,14,7.60
2019,04,27,02,15,7.60
2019,04,27,02,16,7.60
2019,04,27,02,17,7.60
2019,04,27,02,18,7.50
2019,04,27,02,19,7.50
2019,04,27,02,20,7.50
2019,04,27,02,21,7.50
2019,04,27,02,22,7.40
2019,04,27,02,23,7.40
2019,04,27,02,24,7.40
2019,04,27,02,25,7.40
2019,04,27,02,26,7.40
2019,04,27,02,27,7.40
2019,04,27,02,28,7.40
2019,04,27,02,29,7.40
2019,04,27,02,30,7.30
2019,04,27,02,31,7.30
2019,04,27,02,32,7.30
2019,04,27,02,33,7.30
2019,04,27,02,34,7.30
2019,04,27,02,35,7.30
2019,04,27,02,36,7.30
2019,04,27,02,37,7.30
2019,04,27,02,38,7.30
2019,04,27,02,39,7.30
2019,04,27,02,40,7.20
2019,04,27,02,41,7.20
2019,04,27,02,42,7.20
2019,04,27,02,43,7.20
2019,04,27,02,44,7.20
2019,04,27,02,45,7.20
2019,04,27,02,46,7.20
2019,04,27,02,47,7.10
2019,04,27,02,48,7.10
2019,04,27,02,49,7.10
2019,04,27,02,50,7.10
2019,04,27,02,51,7.00
2019,04,27,02,52,7.00
2019,04,27,02,53,7.00
2019,04,27,02,54,6.90
2019,04,27,02,55,6.90
2019,04,27,02,56,6.90
2019,04,27,02,57,6.90
2019,04,27,02,58,6.80
2019,04,27,02,59,6.80
2019,04,27,03,00,6.80
2019,04,27,03,01,6.80
2019,04,27,03,02,6.70
2019,04,27,03,03,6.70
2019,04,27,03,04,6.70
2019,04,27,03,05,6.60
2019,04,27,03,06,6.60
2019,04,27,03,07,6.60
2019,04,27,03,08,6.50
2019,04,27,03,09,6.50
2019,04,27,03,10,6.40
2019,04,27,03,11,6.40
2019,04,27,03,12,6.40
2019,04,27,03,13,6.30
2019,04,27,03,14,6.30
2019,04,27,03,15,6.30
2019,04,27,03,16,6.30
2019,04,27,03,17,6.20
2019,04,27,03,18,6.20
2019,04,27,03,19,6.20
2019,04,27,03,20,6.10
2019,04,27,03,21,6.10
2019,04,27,03,22,6.10
2019,04,27,03,23,6.10
2019,04,27,03,24,6.00
2019,04,27,03,25,6.00
2019,04,27,03,26,5.90
2019,04,27,03,27,5.90
2019,04,27,03,28,5.90
2019,04,27,03,29,5.90
2019,04,27,03,30,5.90
2019,04,27,03,31,5.80
2019,04,27,03,32,5.80
2019,04,27,03,33,5.80
2019,04,27,03,34,5.80
2019,04,27,03,35,5.80
2019,04,27,03,36,5.70
2019,04,27,03,37,5.70
2019,04,27,03,38,5.70
2019,04,27,03,39,5.70
2019,04,27,03,40,5.60
2019,04,27,03,41,5.60
2019,04,27,03,42,5.60
2019,04,27,03,43,5.50
2019,04,27,03,44,5.50
2019,04,27,03,45,5.40
2019,04,27,03,46,5.40
2019,04,27,03,47,5.30
2019,04,27,03,48,5.30
2019,04,27,03,49,5.20
2019,04,27,03,50,5.20
2019,04,27,03,51,5.20
2019,04,27,03,52,5.10
2019,04,27,03,53,5.10
2019,04,27,03,54,5.10
2019,04,27,03,55,5.00
2019,04,27,03,56,5.00
2019,04,27,03,57,4.90
2019,04,27,03,58,4.90
2019,04,27,03,59,4.90
2019,04,27,04,00,4.90
2019,04,27,04,01,4.80
2019,04,27,04,02,4.80
2019,04,27,04,03,4.80
2019,04,27,04,04,4.80
2019,04,27,04,05,4.70
2019,04,27,04,06,4.70
2019,04,27,04,07,4.70
2019,04,27,04,08,4.70
2019,04,27,04,09,4.60
2019,04,27,04,10,4.60
2019,04,27,04,11,4.60
2019,04,27,04,12,4.50
2019,04,27,04,13,4.50
2019,04,27,04,14,4.40
2019,04,27,04,15,4.40
2019,04,27,04,16,4.40
2019,04,27,04,17,4.40
2019,04,27,04,18,4.30
2019,04,27,04,19,4.30
2019,04,27,04,20,4.30
2019,04,27,04,21,4.30
2019,04,27,04,22,4.30
2019,04,27,04,23,4.30
2019,04,27,04,24,4.30
2019,04,27,04,25,4.20
2019,04,27,04,26,4.20
2019,04,27,04,27,4.20
2019,04,27,04,28,4.20
2019,04,27,04,29,4.20
2019,04,27,04,30,4.10
2019,04,27,04,31,4.10
2019,04,27,04,32,4.10
2019,04,27,04,33,4.10
2019,04,27,04,34,4.10
2019,04,27,04,35,4.10
2019,04,27,04,36,4.10
2019,04,27,04,37,4.10
2019,04,27,04,38,4.10
2019,04,27,04,39,4.10
2019,04,27,04,40,4.10
2019,04,27,04,41,4.10
2019,04,27,04,42,4.00
2019,04,27,04,43,4.00
2019,04,27,04,44,4.00
2019,04,27,04,45,4.00
2019,04,27,04,46,4.00
2019,04,27,04,48,4.00
2019,04,27,04,49,4.00
2019,04,27,04,50,4.00
2019,04,27,04,51,4.00
2019,04,27,04,52,4.00
2019,04,27,04,53,4.00
2019,04,27,04,54,4.00
2019,04,27,04,55,4.00
2019,04,27,04,56,4.00
2019,04,27,04,57,4.00
2019,04,27,04,58,4.00
2019,04,27,04,59,3.90
2019,04,27,05,00,3.90
2019,04,27,05,01,3.90
2019,04,27,05,02,3.90
2019,04,27,05,03,3.90
2019,04,27,05,04,3.90
2019,04,27,05,05,3.90
2019,04,27,05,06,3.80
2019,04,27,05,07,3.80
2019,04,27,05,08,3.80
2019,04,27,05,09,3.80
2019,04,27,05,10,3.80
2019,04,27,05,11,3.80
2019,04,27,05,12,3.70
2019,04,27,05,13,3.70
2019,04,27,05,14,3.70
2019,04,27,05,15,3.70
2019,04,27,05,16,3.70
2019,04,27,05,18,3.60
2019,04,27,05,19,3.60
2019,04,27,05,20,3.60
2019,04,27,05,21,3.60
2019,04,27,05,22,3.60
2019,04,27,05,23,3.50
2019,04,27,05,24,3.50
2019,04,27,05,26,3.50
2019,04,27,05,27,3.50
2019,04,27,05,28,3.50
2019,04,27,05,29,3.50
2019,04,27,05,30,3.50
2019,04,27,05,31,3.50
2019,04,27,05,32,3.50
2019,04,27,05,33,3.40
2019,04,27,05,34,3.50
2019,04,27,05,35,3.50
2019,04,27,05,36,3.50
2019,04,27,05,37,3.50
2019,04,27,05,38,3.40
2019,04,27,05,39,3.40
2019,04,27,05,40,3.40
2019,04,27,05,41,3.40
2019,04,27,05,42,3.40
2019,04,27,05,43,3.40
2019,04,27,05,44,3.30
2019,04,27,05,45,3.30
2019,04,27,05,46,3.30
2019,04,27,05,47,3.30
2019,04,27,05,48,3.20
2019,04,27,05,50,3.20
2019,04,27,05,51,3.20
2019,04,27,05,52,3.20
2019,04,27,05,53,3.10
2019,04,27,05,55,3.10
2019,04,27,05,56,3.10
2019,04,27,05,57,3.00
2019,04,27,05,58,3.00
2019,04,27,05,59,3.00
2019,04,27,06,00,3.00
2019,04,27,06,01,3.00
2019,04,27,06,03,2.90
2019,04,27,06,04,2.90
2019,04,27,06,06,2.90
2019,04,27,06,07,2.80
2019,04,27,06,08,2.80
2019,04,27,06,09,2.80
2019,04,27,06,10,2.80
2019,04,27,06,11,2.70
2019,04,27,06,12,2.70
2019,04,27,06,14,2.70
2019,04,27,06,15,2.70
2019,04,27,06,16,2.70
2019,04,27,06,17,2.70
2019,04,27,06,18,2.70
2019,04,27,06,19,2.60
2019,04,27,06,20,2.60
2019,04,27,06,21,2.60
2019,04,27,06,22,2.60
2019,04,27,06,23,2.60
2019,04,27,06,24,2.60
2019,04,27,06,25,2.60
2019,04,27,06,26,2.60
2019,04,27,06,27,2.60
2019,04,27,06,28,2.60
2019,04,27,06,29,2.50
2019,04,27,06,30,2.50
2019,04,27,06,31,2.50
2019,04,27,06,32,2.50
2019,04,27,06,33,2.50
2019,04,27,06,34,2.40
2019,04,27,06,35,2.40
2019,04,27,06,36,2.40
2019,04,27,06,37,2.40
2019,04,27,06,39,2.50
2019,04,27,06,40,2.50
2019,04,27,06,41,2.50
2019,04,27,06,42,2.50
2019,04,27,06,43,2.50
2019,04,27,06,44,2.50
2019,04,27,06,45,2.50
2019,04,27,06,47,2.50
2019,04,27,06,48,2.60
2019,04,27,06,49,2.60
2019,04,27,06,51,2.60
2019,04,27,06,52,2.60
2019,04,27,06,53,2.60
2019,04,27,06,54,2.70
2019,04,27,06,55,2.70
2019,04,27,06,56,2.70
2019,04,27,06,58,2.70
2019,04,27,06,59,2.70
2019,04,27,07,00,2.70
2019,04,27,07,01,2.70
2019,04,27,07,03,2.80
2019,04,27,07,04,2.80
2019,04,27,07,05,2.80
2019,04,27,07,06,2.80
2019,04,27,07,07,2.80
2019,04,27,07,08,2.90
2019,04,27,07,09,2.90
2019,04,27,07,10,2.90
2019,04,27,07,11,3.00
2019,04,27,07,12,3.00
2019,04,27,07,14,3.10
2019,04,27,07,15,3.20
2019,04,27,07,16,3.20
2019,04,27,07,17,3.20
2019,04,27,07,18,3.20
2019,04,27,07,19,3.30
2019,04,27,07,20,3.30
2019,04,27,07,21,3.40
2019,04,27,07,22,3.40
2019,04,27,07,23,3.50
2019,04,27,07,25,3.70
2019,04,27,07,26,3.70
2019,04,27,07,27,3.80
2019,04,27,07,28,3.90
2019,04,27,07,29,3.90
2019,04,27,07,30,4.10
2019,04,27,07,31,4.20
2019,04,27,07,32,4.30
2019,04,27,07,33,4.30
2019,04,27,07,35,4.40
2019,04,27,07,36,4.50
2019,04,27,07,37,4.60
2019,04,27,07,38,4.70
2019,04,27,07,39,4.80
2019,04,27,07,41,4.90
2019,04,27,07,42,5.00
2019,04,27,07,44,5.10
2019,04,27,07,45,5.20
2019,04,27,07,47,5.30
2019,04,27,07,49,5.40
2019,04,27,07,51,5.60
2019,04,27,07,52,5.70
2019,04,27,07,53,5.80
2019,04,27,07,55,5.90
2019,04,27,07,56,6.00
2019,04,27,07,57,6.10
2019,04,27,07,58,6.20
2019,04,27,07,59,6.20
2019,04,27,08,00,6.30
2019,04,27,08,01,6.50
2019,04,27,08,03,6.60
2019,04,27,08,04,6.70
2019,04,27,08,05,6.70
2019,04,27,08,06,6.70
2019,04,27,08,08,6.80
2019,04,27,08,09,6.80
2019,04,27,08,10,6.90
2019,04,27,08,11,6.90
2019,04,27,08,13,6.90
2019,04,27,08,14,6.90
2019,04,27,08,15,6.90
2019,04,27,08,16,6.90
2019,04,27,08,17,6.90
2019,04,27,08,19,6.90
2019,04,27,08,20,7.00
2019,04,27,08,21,7.10
2019,04,27,08,22,7.10
2019,04,27,08,23,7.10
2019,04,27,08,24,7.20
2019,04,27,08,25,7.30
2019,04,27,08,27,7.40
2019,04,27,08,28,7.40
2019,04,27,08,29,7.40
2019,04,27,08,30,7.40
2019,04,27,08,31,7.50
2019,04,27,08,32,7.60
2019,04,27,08,33,7.60
2019,04,27,08,34,7.70
2019,04,27,08,36,7.70
2019,04,27,08,38,7.80
2019,04,27,08,40,7.90
2019,04,27,08,41,8.00
2019,04,27,08,42,8.00
2019,04,27,08,44,8.00
2019,04,27,08,46,8.00
2019,04,27,08,47,8.00
2019,04,27,08,48,7.90
2019,04,27,08,49,7.90
2019,04,27,08,51,7.90
2019,04,27,08,52,7.90
2019,04,27,08,53,7.90
2019,04,27,08,55,7.90
2019,04,27,08,56,7.90
2019,04,27,08,58,7.90
2019,04,27,08,59,7.90
2019,04,27,09,00,8.10
2019,04,27,09,01,8.10
2019,04,27,09,02,8.20
2019,04,27,09,03,8.30
2019,04,27,09,05,8.40
2019,04,27,09,06,8.50
2019,04,27,09,07,8.60
2019,04,27,09,08,8.60
2019,04,27,09,10,8.70
2019,04,27,09,11,8.70
2019,04,27,09,13,8.70
2019,04,27,09,14,8.70
2019,04,27,09,16,8.70
2019,04,27,09,17,8.70
2019,04,27,09,18,8.70
2019,04,27,09,19,8.70
2019,04,27,09,20,8.70
2019,04,27,09,21,8.80
2019,04,27,09,22,8.80
2019,04,27,09,23,8.80
2019,04,27,09,24,8.90
2019,04,27,09,25,9.00
2019,04,27,09,26,9.10
2019,04,27,09,27,9.10
2019,04,27,09,29,9.20
2019,04,27,09,30,9.20
2019,04,27,09,31,9.30
2019,04,27,09,33,9.40
2019,04,27,09,34,9.40
2019,04,27,09,35,9.40
2019,04,27,09,36,9.40
2019,04,27,09,37,9.40
2019,04,27,09,39,9.40
2019,04,27,09,40,9.40
2019,04,27,09,41,9.40
2019,04,27,09,43,9.40
2019,04,27,09,44,9.60
2019,04,27,09,46,9.60
2019,04,27,09,47,9.70
2019,04,27,09,48,9.80
2019,04,27,09,49,9.80
2019,04,27,09,50,9.90
2019,04,27,09,51,9.90
2019,04,27,09,52,9.90
2019,04,27,09,54,9.80
2019,04,27,09,55,9.80
2019,04,27,09,56,9.70
2019,04,27,09,58,9.70
2019,04,27,10,00,9.60
2019,04,27,10,01,9.60
2019,04,27,10,02,9.60
2019,04,27,10,03,9.60
2019,04,27,10,05,9.60
2019,04,27,10,07,9.60
2019,04,27,10,08,9.70
2019,04,27,10,09,9.80
2019,04,27,10,10,9.80
2019,04,27,10,12,9.80
2019,04,27,10,13,10.00
2019,04,27,10,15,10.00
2019,04,27,10,16,10.00
2019,04,27,10,17,10.00
2019,04,27,10,19,10.10
2019,04,27,10,21,10.20
2019,04,27,10,22,10.20
2019,04,27,10,23,10.30
2019,04,27,10,25,10.30
2019,04,27,10,27,10.30
2019,04,27,10,28,10.30
2019,04,27,10,29,10.30
2019,04,27,10,31,10.30
2019,04,27,10,32,10.30
2019,04,27,10,33,10.20
2019,04,27,10,34,10.10
2019,04,27,10,36,10.10
2019,04,27,10,37,10.10
2019,04,27,10,39,10.00
2019,04,27,10,40,10.00
2019,04,27,10,41,9.90
2019,04,27,10,43,9.90
2019,04,27,10,44,9.90
2019,04,27,10,45,9.90
2019,04,27,10,47,9.90
2019,04,27,10,48,9.90
2019,04,27,10,50,9.90
2019,04,27,10,51,9.90
2019,04,27,10,53,9.90
2019,04,27,10,54,9.90
2019,04,27,10,55,9.90
2019,04,27,10,56,10.00
2019,04,27,10,58,10.00
2019,04,27,10,59,10.00
2019,04,27,11,00,10.00
2019,04,27,11,01,10.00
2019,04,27,11,03,10.00
2019,04,27,11,04,10.10
2019,04,27,11,06,10.10
2019,04,27,11,07,10.10
2019,04,27,11,09,10.20
2019,04,27,11,10,10.20
2019,04,27,11,11,10.20
2019,04,27,11,12,10.10
2019,04,27,11,13,10.20
2019,04,27,11,14,10.10
2019,04,27,11,15,10.10
2019,04,27,11,16,10.10
2019,04,27,11,17,10.10
2019,04,27,11,18,10.10
2019,04,27,11,20,10.10
2019,04,27,11,22,10.20
2019,04,27,11,23,10.20
2019,04,27,11,25,10.30
2019,04,27,11,26,10.30
2019,04,27,11,27,10.30
2019,04,27,11,29,10.40
2019,04,27,11,30,10.60
2019,04,27,11,31,10.60
2019,04,27,11,33,10.60
2019,04,27,11,34,10.60
2019,04,27,11,35,10.60
2019,04,27,11,36,10.60
2019,04,27,11,37,10.60
2019,04,27,11,39,10.60
2019,04,27,11,40,10.50
2019,04,27,11,42,10.50
2019,04,27,11,44,10.60
2019,04,27,11,45,10.60
2019,04,27,11,46,10.70
2019,04,27,11,48,10.80
2019,04,27,11,50,10.90
2019,04,27,11,52,11.10
2019,04,27,11,53,11.30
2019,04,27,11,55,11.30
2019,04,27,11,56,11.50
2019,04,27,11,57,11.50
2019,04,27,11,58,11.50
2019,04,27,11,59,11.40
2019,04,27,12,00,11.40
2019,04,27,12,02,11.40
2019,04,27,12,03,11.40
2019,04,27,12,04,11.50
2019,04,27,12,05,11.50
2019,04,27,12,06,11.60
2019,04,27,12,07,11.60
2019,04,27,12,08,11.60
2019,04,27,12,09,11.60
2019,04,27,12,10,11.60
2019,04,27,12,11,11.60
2019,04,27,12,13,11.50
2019,04,27,12,14,11.40
2019,04,27,12,15,11.40
2019,04,27,12,16,11.30
2019,04,27,12,18,11.30
2019,04,27,12,19,11.30
2019,04,27,12,20,11.30
2019,04,27,12,21,11.40
2019,04,27,12,23,11.40
2019,04,27,12,24,11.50
2019,04,27,12,26,11.60
2019,04,27,12,27,11.60
2019,04,27,12,29,11.60
2019,04,27,12,30,11.70
2019,04,27,12,31,11.70
2019,04,27,12,33,11.80
2019,04,27,12,34,11.80
2019,04,27,12,35,11.80
2019,04,27,12,37,11.70
2019,04,27,12,38,11.60
2019,04,27,12,40,11.70
2019,04,27,12,41,11.70
2019,04,27,12,42,11.70
2019,04,27,12,43,11.80
2019,04,27,12,45,11.90
2019,04,27,12,46,12.00
2019,04,27,12,47,12.10
2019,04,27,12,48,12.10
2019,04,27,12,49,12.10
2019,04,27,12,50,12.20
2019,04,27,12,51,12.30
2019,04,27,12,52,12.40
2019,04,27,12,54,12.60
2019,04,27,12,56,12.80
2019,04,27,12,57,12.80
2019,04,27,12,58,12.90
2019,04,27,12,59,12.90
2019,04,27,13,00,12.90
2019,04,27,13,01,12.90
2019,04,27,13,02,13.00
2019,04,27,13,03,12.90
2019,04,27,13,04,12.90
2019,04,27,13,05,12.80
2019,04,27,13,06,12.80
2019,04,27,13,07,12.70
2019,04,27,13,09,12.70
2019,04,27,13,10,12.60
2019,04,27,13,11,12.50
2019,04,27,13,12,12.60
2019,04,27,13,13,12.70
2019,04,27,13,14,12.70
2019,04,27,13,15,12.80
2019,04,27,13,16,12.80
2019,04,27,13,17,12.90
2019,04,27,13,19,12.90
2019,04,27,13,20,12.90
2019,04,27,13,21,12.90
2019,04,27,13,22,13.00
2019,04,27,13,23,13.10
2019,04,27,13,24,13.10
2019,04,27,13,26,13.10
2019,04,27,13,27,13.10
2019,04,27,13,28,13.20
2019,04,27,13,29,13.20
2019,04,27,13,30,13.20
2019,04,27,13,31,13.30
2019,04,27,13,32,13.30
2019,04,27,13,33,13.30
2019,04,27,13,34,13.30
2019,04,27,13,35,13.20
2019,04,27,13,36,13.20
2019,04,27,13,37,13.30
2019,04,27,13,38,13.30
2019,04,27,13,39,13.40
2019,04,27,13,40,13.50
2019,04,27,13,41,13.60
2019,04,27,13,42,13.80
2019,04,27,13,43,13.80
2019,04,27,13,44,13.80
2019,04,27,13,45,13.80
2019,04,27,13,46,13.90
2019,04,27,13,47,14.00
2019,04,27,13,48,14.10
2019,04,27,13,49,14.20
2019,04,27,13,50,14.30
2019,04,27,13,51,14.40
2019,04,27,13,52,14.60
2019,04,27,13,53,14.60
2019,04,27,13,54,14.50
2019,04,27,13,55,14.40
2019,04,27,13,56,14.40
2019,04,27,13,57,14.30
2019,04,27,13,58,14.20
2019,04,27,13,59,14.20
2019,04,27,14,00,14.20
2019,04,27,14,01,14.20
2019,04,27,14,03,14.20
2019,04,27,14,04,14.20
2019,04,27,14,06,14.30
2019,04,27,14,07,14.30
2019,04,27,14,09,14.20
2019,04,27,14,10,14.20
2019,04,27,14,11,14.10
2019,04,27,14,12,14.10
2019,04,27,14,13,14.10
2019,04,27,14,15,14.10
2019,04,27,14,16,14.00
2019,04,27,14,17,14.00
2019,04,27,14,18,14.10
2019,04,27,14,19,14.00
2019,04,27,14,20,13.90
2019,04,27,14,21,13.90
2019,04,27,14,22,13.90
2019,04,27,14,23,13.90
2019,04,27,14,24,13.90
2019,04,27,14,26,13.90
2019,04,27,14,27,13.80
2019,04,27,14,28,13.80
2019,04,27,14,29,13.80
2019,04,27,14,30,13.80
2019,04,27,14,31,13.80
2019,04,27,14,32,13.80
2019,04,27,14,33,13.80
2019,04,27,14,34,13.80
2019,04,27,14,35,13.90
2019,04,27,14,36,13.90
2019,04,27,14,37,13.90
2019,04,27,14,38,13.90
2019,04,27,14,39,13.80
2019,04,27,14,41,13.80
2019,04,27,14,42,13.80
2019,04,27,14,43,13.80
2019,04,27,14,44,13.80
2019,04,27,14,45,13.80
2019,04,27,14,46,13.70
2019,04,27,14,47,13.70
2019,04,27,14,48,13.60
2019,04,27,14,50,13.60
2019,04,27,14,51,13.70
2019,04,27,14,52,13.70
2019,04,27,14,53,13.70
2019,04,27,14,54,13.80
2019,04,27,14,56,13.80
2019,04,27,14,57,13.80
2019,04,27,14,58,13.90
2019,04,27,14,59,13.90
2019,04,27,15,00,14.00
2019,04,27,15,01,14.00
2019,04,27,15,02,13.90
2019,04,27,15,03,13.80
2019,04,27,15,04,13.80
2019,04,27,15,05,13.80
2019,04,27,15,06,13.80
2019,04,27,15,08,13.90
2019,04,27,15,09,13.90
2019,04,27,15,10,14.00
2019,04,27,15,11,14.00
2019,04,27,15,12,14.10
2019,04,27,15,13,14.10
2019,04,27,15,15,14.10
2019,04,27,15,16,14.10
2019,04,27,15,17,14.10
2019,04,27,15,19,14.10
2019,04,27,15,20,14.10
2019,04,27,15,22,14.20
2019,04,27,15,23,14.20
2019,04,27,15,24,14.20
2019,04,27,15,25,14.30
2019,04,27,15,26,14.30
2019,04,27,15,27,14.30
2019,04,27,15,29,14.30
2019,04,27,15,30,14.40
2019,04,27,15,31,14.40
2019,04,27,15,32,14.50
2019,04,27,15,33,14.50
2019,04,27,15,34,14.50
2019,04,27,15,36,14.50
2019,04,27,15,37,14.40
2019,04,27,15,38,14.40
2019,04,27,15,39,14.50
2019,04,27,15,40,14.60
2019,04,27,15,41,14.70
2019,04,27,15,42,14.70
2019,04,27,15,43,14.80
2019,04,27,15,44,14.80
2019,04,27,15,45,14.80
2019,04,27,15,46,14.80
2019,04,27,15,47,14.90
2019,04,27,15,48,14.80
2019,04,27,15,50,14.80
2019,04,27,15,51,14.60
2019,04,27,15,52,14.60
2019,04,27,15,53,14.50
2019,04,27,15,54,14.50
2019,04,27,15,55,14.50
2019,04,27,15,57,14.50
2019,04,27,15,58,14.60
2019,04,27,15,59,14.60
2019,04,27,16,00,14.70
2019,04,27,16,01,14.80
2019,04,27,16,02,14.80
2019,04,27,16,03,14.80
2019,04,27,16,04,14.80
2019,04,27,16,05,14.80
2019,04,27,16,06,14.80
2019,04,27,16,07,14.70
2019,04,27,16,08,14.70
2019,04,27,16,09,14.60
2019,04,27,16,10,14.60
2019,04,27,16,11,14.60
2019,04,27,16,12,14.60
2019,04,27,16,13,14.60
2019,04,27,16,14,14.70
2019,04,27,16,15,14.70
2019,04,27,16,16,14.70
2019,04,27,16,17,14.70
2019,04,27,16,18,14.70
2019,04,27,16,19,14.80
2019,04,27,16,20,14.80
2019,04,27,16,21,14.80
2019,04,27,16,22,14.80
2019,04,27,16,23,14.80
2019,04,27,16,24,14.80
2019,04,27,16,25,14.80
2019,04,27,16,26,14.80
2019,04,27,16,27,14.80
2019,04,27,16,28,14.80
2019,04,27,16,29,14.80
2019,04,27,16,30,14.80
2019,04,27,16,31,14.80
2019,04,27,16,32,14.80
2019,04,27,16,34,14.80
2019,04,27,16,35,14.80
2019,04,27,16,36,14.80
2019,04,27,16,37,14.80
2019,04,27,16,38,14.80
2019,04,27,16,39,14.80
2019,04,27,16,41,14.80
2019,04,27,16,42,14.80
2019,04,27,16,43,14.70
2019,04,27,16,44,14.70
2019,04,27,16,45,14.70
2019,04,27,16,46,14.70
2019,04,27,16,47,14.70
2019,04,27,16,48,14.70
2019,04,27,16,49,14.70
2019,04,27,16,50,14.70
2019,04,27,16,51,14.70
2019,04,27,16,52,14.70
2019,04,27,16,53,14.70
2019,04,27,16,54,14.70
2019,04,27,16,55,14.70
2019,04,27,16,56,14.70
2019,04,27,16,57,14.70
2019,04,27,16,58,14.70
2019,04,27,16,59,14.70
2019,04,27,17,00,14.70
2019,04,27,17,01,14.60
2019,04,27,17,02,14.60
2019,04,27,17,03,14.60
2019,04,27,17,04,14.60
2019,04,27,17,05,14.50
2019,04,27,17,06,14.50
2019,04,27,17,07,14.50
2019,04,27,17,08,14.40
2019,04,27,17,09,14.50
2019,04,27,17,10,14.50
2019,04,27,17,11,14.50
2019,04,27,17,12,14.50
2019,04,27,17,13,14.50
2019,04,27,17,14,14.50
2019,04,27,17,15,14.50
2019,04,27,17,16,14.50
2019,04,27,17,17,14.60
2019,04,27,17,18,14.60
2019,04,27,17,19,14.60
2019,04,27,17,20,14.70
2019,04,27,17,21,14.70
2019,04,27,17,22,14.70
2019,04,27,17,23,14.70
2019,04,27,17,24,14.70
2019,04,27,17,25,14.70
2019,04,27,17,26,14.70
2019,04,27,17,27,14.60
2019,04,27,17,28,14.60
2019,04,27,17,29,14.60
2019,04,27,17,30,14.60
2019,04,27,17,31,14.60
2019,04,27,17,32,14.60
2019,04,27,17,33,14.60
2019,04,27,17,34,14.50
2019,04,27,17,35,14.50
2019,04,27,17,36,14.40
2019,04,27,17,37,14.30
2019,04,27,17,38,14.30
2019,04,27,17,39,14.30
2019,04,27,17,40,14.30
2019,04,27,17,41,14.30
2019,04,27,17,42,14.30
2019,04,27,17,43,14.30
2019,04,27,17,44,14.30
2019,04,27,17,45,14.30
2019,04,27,17,46,14.30
2019,04,27,17,47,14.30
2019,04,27,17,48,14.30
2019,04,27,17,49,14.30
2019,04,27,17,50,14.30
2019,04,27,17,51,14.30
2019,04,27,17,52,14.30
2019,04,27,17,53,14.40
2019,04,27,17,54,14.40
2019,04,27,17,55,14.40
2019,04,27,17,56,14.40
2019,04,27,17,57,14.40
2019,04,27,17,58,14.40
2019,04,27,17,59,14.40
2019,04,27,18,00,14.40
2019,04,27,18,01,14.30
2019,04,27,18,02,14.30
2019,04,27,18,03,14.30
2019,04,27,18,04,14.30
2019,04,27,18,05,14.30
2019,04,27,18,06,14.30
2019,04,27,18,07,14.20
2019,04,27,18,08,14.20
2019,04,27,18,09,14.20
2019,04,27,18,10,14.20
2019,04,27,18,11,14.20
2019,04,27,18,12,14.20
2019,04,27,18,13,14.20
2019,04,27,18,14,14.20
2019,04,27,18,15,14.30
2019,04,27,18,16,14.30
2019,04,27,18,17,14.30
2019,04,27,18,18,14.30
2019,04,27,18,19,14.30
2019,04,27,18,20,14.30
2019,04,27,18,21,14.20
2019,04,27,18,22,14.20
2019,04,27,18,23,14.20
2019,04,27,18,24,14.20
2019,04,27,18,25,14.20
2019,04,27,18,26,14.20
2019,04,27,18,27,14.20
2019,04,27,18,28,14.20
2019,04,27,18,29,14.20
2019,04,27,18,30,14.20
2019,04,27,18,31,14.20
2019,04,27,18,32,14.20
2019,04,27,18,33,14.20
2019,04,27,18,34,14.20
2019,04,27,18,35,14.20
2019,04,27,18,36,14.10
2019,04,27,18,37,14.10
2019,04,27,18,38,14.00
2019,04,27,18,39,13.90
2019,04,27,18,40,13.90
2019,04,27,18,41,13.90
2019,04,27,18,42,13.80
2019,04,27,18,43,13.80
2019,04,27,18,44,13.80
2019,04,27,18,45,13.80
2019,04,27,18,46,13.70
2019,04,27,18,47,13.70
2019,04,27,18,48,13.70
2019,04,27,18,49,13.70
2019,04,27,18,50,13.70
2019,04,27,18,51,13.70
2019,04,27,18,52,13.70
2019,04,27,18,53,13.80
2019,04,27,18,54,13.80
2019,04,27,18,55,13.80
2019,04,27,18,56,13.80
2019,04,27,18,57,13.80
2019,04,27,18,58,13.80
2019,04,27,18,59,13.80
2019,04,27,19,00,13.80
2019,04,27,19,01,13.80
2019,04,27,19,02,13.80
2019,04,27,19,03,13.80
2019,04,27,19,04,13.80
2019,04,27,19,05,13.80
2019,04,27,19,06,13.80
2019,04,27,19,07,13.80
2019,04,27,19,08,13.80
2019,04,27,19,09,13.80
2019,04,27,19,10,13.80
2019,04,27,19,11,13.80
2019,04,27,19,12,13.80
2019,04,27,19,13,13.80
2019,04,27,19,14,13.80
2019,04,27,19,15,13.70
2019,04,27,19,16,13.70
2019,04,27,19,17,13.70
2019,04,27,19,18,13.70
2019,04,27,19,19,13.70
2019,04,27,19,20,13.70
2019,04,27,19,21,13.70
2019,04,27,19,22,13.70
2019,04,27,19,23,13.70
2019,04,27,19,24,13.70
2019,04,27,19,25,13.70
2019,04,27,19,26,13.60
2019,04,27,19,27,13.60
2019,04,27,19,28,13.60
2019,04,27,19,29,13.60
2019,04,27,19,30,13.60
2019,04,27,19,31,13.50
2019,04,27,19,32,13.50
2019,04,27,19,33,13.40
2019,04,27,19,34,13.40
2019,04,27,19,35,13.40
2019,04,27,19,36,13.30